SCP
0 0 0 0 0 0 0 0 0 0 0 0 0 0 0 0 0 0 0 0 0 0 0 0 0 0 0 0 0 0 0 0 0 0 0 0 0 0 0 0 0 0 0
0 0 0 0 0 0 0 0 0 0 0 0 0 0 0 0 0 0 0 0 0 0 0 0 0 0 0 0 0 0 0 0 0 0 0 0 0 0 0 0 0 0 0
0 0 0 0 0 0 0 0 0 0 0 0 0 0 0 0 0 0 0 0 0 0 0 0 0 0 0 0 0 0 0 0 0 0 0 0 0 0 0 0 0 0 0
0 0 0 0 0 0 0 0 0 0 0 0 0 0 0 0 0 0 0 0 0 0 0 0 0 0 0 0 0 0 0 0 0 0 0 0 0 0 0 0 0 0 0
0 0 0 0 0 0 0 0 0 0 0 0 0 0 0 0 0 0 0 0 0 0 0 0 0 0 0 0 0 0 0 0 0 0 0 0 0 0 0 0 0 0 0
0 0 0 0 0 0 0 0 0 0 0 0 0 0 0 0 0 0 0 0 0 0 0 0 0 0 0 0 0 0 0 0 0 0 0 0 0 0 0 0 0 0 0
0 0 0 0 0 0 0 0 0 0 0 0 0 0 0 0 0 0 0 0 0 0 0 0 0 0 0 0 0 0 0 0 0 0 0 0 0 0 0 0 0 0 0
0 0 0 0 0 0 0 0 0 0 0 0 0 0 0 0 0 0 0 0 0 0 0 0 0 0 0 0 0 0 0 0 0 0 0 0 0 0 0 0 0 0 0
0 0 0 0 0 0 0 0 0 0 0 0 0 0 0 0 0 0 0 0 0 0 0 0 0 0 0 0 0 0 0 0 0 0 0 0 0 0 0 0 0 0 0
0 0 0 0 0 0 0 0 0 0 0 0 0 0 0 0 0 0 0 0 0 0 0 0 0 0 0 0 0 0 0 0 0 0 0 0 0 0 0 0 0 0 0
0 0 0 0 0 0 0 0 0 0 0 0 0 0 0 0 0 0 0 0 0 0 0 0 0 0 0 0 0 0 0 0 0 0 0 0 0 0 0 0 0 0 0
0 0 0 0 0 0 0 0 0 0 0 0 0 0 0 0 0 0 0 0 0 0 0 0 0 0 0 0 0 0 0 0 0 0 0 0 0 0 0 0 0 0 0
0 0 0 0 0 0 0 0 0 0 0 0 0 0 0 0 0 0 0 0 0 0 0 0 0 0 0 0 0 0 0 0 0 0 0 0 0 0 0 0 0 0 0
0 0 0 0 0 0 0 0 0 0 0 0 0 0 0 0 0 0 0 0 0 0 0 0 0 0 0 0 0 0 0 0 0 0 0 0 0 0 0 0 0 0 0
0 0 0 0 0 0 0 0 0 0 0 0 0 0 0 0 0 0 0 0 0 0 0 0 0 0 0 0 0 0 0 0 0 0 0 0 0 0 0 0 0 0 0
0 0 0 0 0 0 0 0 0 0 0 0 0 0 0 0 0 0 0 0 0 0 0 0 0 0 0 0 0 0 0 0 0 0 0 0 0 0 0 0 0 0 0
0 0 0 0 0 0 0 0 0 0 0 0 0 0 0 0 0 0 0 0 0 0 0 0 0 0 0 0 0 0 0 0 0 0 0 0 0 0 0 0 0 0 0
0 0 0 0 0 0 0 0 0 0 0 0 0 0 0 0 0 0 0 0 0 0 0 0 0 0 0 0 0 0 0 0 0 0 0 0 0 0 0 0 0 0 0
0 0 0 0 0 0 0 0 0 0 0 0 0 0 0 0 0 0 0 0 0 0 0 0 0 0 0 0 0 0 0 0 0 0 0 0 0 0 0 0 0 0 0
0 0 0 0 0 0 0 0 0 0 0 0 0 0 0 0 0 0 0 0 0 0 0 0 0 0 0 0 0 0 0 0 0 0 0 0 0 0 0 0 0 0 0
0 0 0 0 0 0 0 0 0 0 0 0 0 0 0 0 0 0 0 0 0 0 0 0 0 0 0 0 0 0 0 0 0 0 0 0 0 0 0 0 0 0 0
0 0 0 0 0 0 0 0 0 0 0 0 0 0 0 0 0 0 0 0 0 0 0 0 0 0 0 0 0 0 0 0 0 0 0 0 0 0 0 0 0 0 0
0 0 0 0 0 0 0 0 0 0 0 0 0 0 0 0 0 0 0 0 0 0 0 0 0 0 0 0 0 0 0 0 0 0 0 0 0 0 0 0 0 0 0
0 0 0 0 0 0 0 0 0 0 0 0 0 0 0 0 0 0 0 0 0 0 0 0 0 0 0 0 0 0 0 0 0 0 0 0 0 0 0 0 0 0 0
0 0 0 0 0 0 0 0 0 0 0 0 0 0 0 0 0 0 0 0 0 0 0 0 0 0 0 0 0 0 0 0 0 0 0 0 0 0 0 0 0 0 0
0 0 0 0 0 0 0 0 0 0 0 0 0 0 0 0 0 0 0 0 0 0 0 0 0 0 0 0 0 0 0 0 0 0 0 0 0 0 0 0 0 0 0
Wind_Speed
4 4 3 3 2 2 2 3 3 3 3 3 3 3 4 4 3 2 2 2 2 2 2 2 3 2 2 2 2 2 3 3 4 3 2 2 2 3 3 3 4 5 5
4 4 4 3 2 2 3 3 3 3 3 3 3 3 3 3 3 3 3 3 2 3 3 2 3 2 2 2 2 3 2 3 3 4 2 2 3 3 3 3 3 4 4
3 4 4 3 3 4 4 3 3 3 3 3 3 3 4 4 3 3 3 3 3 3 3 3 3 3 3 2 3 3 2 3 3 3 3 2 2 2 2 3 3 3 4
4 4 4 4 4 4 4 3 3 3 3 3 3 4 4 4 4 3 3 3 3 3 3 3 3 3 4 3 3 3 3 3 3 3 3 2 2 2 2 2 3 3 3
3 4 5 4 4 4 4 4 3 3 4 3 3 4 4 4 3 3 3 3 3 3 3 3 4 5 6 4 3 3 3 3 3 3 3 2 3 2 3 2 3 3 3
3 4 3 3 3 4 4 4 4 4 4 3 3 4 4 4 7 7 3 2 3 3 4 4 4 4 5 6 6 4 4 4 4 4 3 4 4 4 3 3 3 3 3
3 3 3 3 3 4 3 3 4 4 3 4 4 4 5 6 8 8 6 2 2 3 3 3 3 3 4 3 5 5 5 5 6 4 5 5 4 4 4 4 4 4 4
2 2 2 2 3 3 3 4 4 3 3 4 4 4 4 6 8 7 6 2 2 3 3 3 3 4 4 3 3 3 3 4 4 4 5 5 5 4 5 5 4 4 3
1 2 2 2 2 3 3 4 3 3 3 3 3 4 4 6 8 8 5 1 2 4 3 3 3 4 6 6 3 4 4 4 5 6 7 7 8 8 6 3 3 4 4
2 2 2 1 2 3 4 4 2 2 3 3 3 3 3 5 8 8 6 1 2 3 4 4 5 5 8 7 3 4 5 5 4 4 4 5 5 6 7 6 5 5 4
1 0 1 1 1 2 2 2 2 2 2 2 3 3 3 4 7 8 7 1 2 3 3 4 4 8 9 8 6 4 7 6 4 4 4 4 3 3 4 4 5 5 6
2 2 2 2 2 2 2 2 2 2 2 2 3 4 3 4 5 7 8 5 2 2 3 3 4 9 9 8 5 6 8 6 3 3 3 4 3 3 3 4 5 6 6
3 3 2 3 3 3 2 3 3 2 2 2 2 3 4 4 5 9 9 8 7 2 2 5 7 8 8 5 6 7 5 2 2 3 4 4 3 4 3 3 4 5 6
4 3 2 3 3 4 3 2 2 2 2 2 2 3 3 4 4 4 4 5 6 4 3 5 7 7 5 5 6 5 3 2 3 3 4 4 3 3 3 3 3 4 4
4 3 3 3 3 3 3 2 2 2 2 2 1 1 2 3 5 7 5 4 4 4 3 3 4 5 6 6 5 5 4 4 4 3 4 4 4 4 4 3 3 3 4
4 3 2 2 2 2 2 3 5 5 8 8 7 4 3 5 7 9 10 11 11 9 6 4 5 5 5 5 5 5 4 5 5 5 4 4 4 5 5 4 3 4 5
5 3 2 2 2 2 2 2 2 5 7 9 10 9 7 8 8 8 9 9 11 10 6 4 4 5 5 5 5 5 5 5 5 5 5 5 5 5 5 5 4 4 5
5 5 4 2 2 2 2 1 1 2 3 3 6 8 9 9 9 9 8 6 6 7 4 4 4 4 4 5 5 5 5 6 5 5 5 6 6 6 6 5 5 6 6
5 3 3 2 2 2 2 2 2 2 2 2 3 5 8 7 8 9 8 4 3 3 3 3 3 3 3 4 4 4 4 5 6 6 6 6 6 6 7 7 6 8 7
4 7 5 3 2 2 2 2 2 2 2 2 2 2 3 3 3 4 4 3 2 2 2 3 3 3 3 3 4 4 4 4 5 5 5 6 6 6 7 8 7 7 7
4 4 7 4 2 2 2 1 1 1 1 1 1 2 3 2 2 2 2 2 2 3 3 3 3 3 3 3 4 4 5 4 4 5 5 5 6 6 6 7 8 7 7
4 3 3 3 2 2 2 1 1 1 0 1 1 2 5 2 2 2 2 3 3 2 3 3 3 3 4 4 4 5 5 5 5 5 6 6 6 7 7 7 7 7 7
5 4 3 2 2 2 2 1 1 0 0 1 1 1 2 2 2 2 3 3 3 3 3 3 4 4 4 4 4 5 5 6 6 7 7 7 7 7 7 8 10 10 9
5 4 4 3 2 2 2 1 1 1 1 1 1 2 2 2 3 4 4 4 4 4 4 4 5 7 8 7 5 5 6 7 7 7 9 9 9 8 8 8 9 11 10
5 4 4 3 3 2 2 2 1 1 2 2 2 2 3 3 4 4 4 4 5 5 6 6 5 6 9 10 10 8 11 13 13 10 8 8 10 10 10 11 10 10 10
5 4 4 3 3 3 2 2 2 2 2 2 3 3 3 4 4 5 5 5 5 6 6 6 8 10 11 10 11 13 15 16 16 16 11 9 10 10 10 9 12 11 12
Wind_Direction
246 249 260 269 271 274 277 285 293 301 313 321 325 332 334 332 334 337 321 320 323 314 309 290 284 277 268 260 238 222 215 209 237 260 250 253 237 240 236 221 219 218 221
240 245 254 263 270 274 279 285 289 294 302 306 314 319 323 324 324 321 315 319 311 306 303 296 289 289 279 271 250 237 228 218 223 248 251 245 244 237 233 230 228 224 221
234 242 256 261 261 265 272 284 289 290 296 306 309 308 309 311 311 305 295 297 292 285 284 282 283 284 277 268 255 241 234 231 221 236 249 243 251 245 243 245 236 232 230
226 235 248 254 254 261 270 277 279 281 287 295 298 296 295 296 295 297 293 290 291 286 279 275 277 268 264 263 257 244 232 231 231 238 245 245 246 239 225 237 247 231 235
217 235 248 257 260 264 269 271 275 278 279 283 292 301 301 294 288 292 287 288 293 298 296 284 278 278 275 266 254 236 219 224 231 237 241 242 238 223 226 222 239 247 242
210 239 255 264 268 269 271 273 277 279 282 284 285 291 299 296 308 312 301 282 290 293 299 301 294 293 306 310 302 280 243 226 228 231 238 241 243 232 227 226 231 233 250
217 248 260 261 270 274 281 285 280 279 279 281 282 283 287 290 303 312 313 290 282 285 284 296 308 309 318 310 310 305 289 272 251 235 240 245 242 231 223 234 230 228 233
219 258 271 271 276 287 294 288 284 279 275 275 279 282 284 293 309 314 313 303 287 289 279 272 280 296 300 299 298 299 289 281 268 249 238 246 246 242 231 235 241 242 252
235 269 276 266 272 288 291 288 285 286 287 279 279 287 288 298 315 321 323 295 297 299 295 287 285 287 300 313 301 292 292 289 275 259 256 257 258 257 242 230 229 233 249
241 267 283 270 262 277 282 287 286 279 285 301 309 306 298 300 322 332 335 267 294 303 307 301 298 298 303 312 292 279 285 287 292 295 287 281 266 258 246 230 226 232 240
228 21 9 343 294 289 303 300 299 303 316 326 326 328 331 328 332 343 345 304 264 292 302 305 305 315 313 310 298 266 272 288 286 281 284 282 272 258 248 234 226 226 231
101 73 37 16 7 10 349 339 337 337 347 342 346 344 346 342 346 347 353 349 326 266 284 295 304 319 321 318 310 294 294 298 286 285 285 282 276 268 261 250 239 233 233
97 72 40 29 21 13 20 11 10 16 19 360 5 355 345 349 351 358 0 360 356 337 296 314 327 337 339 337 339 337 330 311 293 287 287 285 272 270 273 269 254 242 240
102 79 53 46 30 22 27 34 42 30 25 20 15 357 343 349 355 356 356 357 358 0 355 357 4 7 6 358 355 356 349 327 312 293 288 286 285 279 273 266 263 257 251
105 88 65 53 44 32 35 41 46 41 65 69 24 7 10 2 0 13 22 12 5 6 15 23 22 16 15 9 3 357 349 346 335 316 303 301 297 288 281 271 259 256 252
115 100 83 67 52 48 45 32 32 42 48 54 56 58 34 32 25 35 37 35 33 37 49 36 23 15 11 3 357 353 352 350 340 331 321 310 305 304 299 285 263 260 261
128 126 107 89 77 64 57 61 31 13 28 36 35 37 39 31 32 35 39 41 40 42 49 34 20 9 1 356 353 351 346 340 337 336 335 330 321 311 305 302 292 277 268
128 127 121 109 97 85 77 71 69 56 22 359 3 19 27 33 33 32 34 43 37 36 34 25 11 360 355 353 351 348 343 342 344 341 339 337 334 325 317 310 302 292 284
130 129 124 117 105 95 86 77 69 62 52 16 2 4 13 22 31 31 36 48 40 22 11 2 353 348 344 342 342 340 339 338 339 339 339 337 333 329 324 318 309 302 292
139 140 133 124 108 95 86 84 75 66 50 32 18 355 350 18 27 15 21 23 19 359 346 340 334 331 328 327 326 326 329 330 331 331 331 332 329 325 320 318 315 310 302
135 137 131 118 116 117 112 107 102 90 64 30 347 344 15 32 15 358 355 354 345 334 329 325 321 320 317 314 314 316 318 317 318 319 320 320 322 321 317 312 311 310 306
137 135 134 135 133 130 133 133 124 112 58 6 331 343 5 15 343 329 322 319 316 311 309 309 309 307 308 308 310 312 312 311 312 312 312 311 310 310 311 311 309 306 305
141 140 138 138 140 138 125 129 138 155 272 304 307 318 329 323 311 305 303 302 304 303 302 299 298 298 296 293 290 290 295 299 299 300 302 304 304 302 302 304 306 306 302
148 150 151 152 152 153 162 180 205 235 258 277 288 291 292 294 295 295 295 294 295 294 292 290 286 289 292 293 288 282 280 282 287 288 290 291 294 294 293 293 294 297 299
153 156 160 165 169 175 184 201 225 249 264 268 274 281 287 291 291 292 291 290 292 292 294 293 288 288 288 289 288 286 285 286 287 286 284 283 283 284 284 286 286 289 290
160 164 167 171 178 185 193 208 228 243 254 263 270 275 282 286 288 290 292 291 293 293 293 292 288 288 289 289 287 287 288 288 287 286 283 280 279 278 278 278 281 281 284